Regional Weather Roundup
Issued by NWS Kansas City/Pleasant Hill, MO

Home | Current Version | Previous Version | Text Only | Print | Product List | Glossary On
Versions: 1 2 3 4 5 6 7 8 9 10 11 12 13 14 15 16 17 18 19 20 21 22 23 24 25 26 27 28 29 30 31 32 33 34 35 36 37 38 39 40 41 42 43 44 45 46 47 48 49 50
000
ASUS43 KEAX 012004
RWREAX

WEATHER ROUNDUP FOR EASTERN KANSAS AND NORTHWEST MISSOURI
NATIONAL WEATHER SERVICE KANSAS CITY/PLEASANT HILL MO
300 PM CDT MON JUN 01 2015

KSZ040-057-103>105-MOZ028-029-037-043-012100-
...KANSAS CITY METROPOLITAN AREA...

CITY           SKY/WX    TMP DP  RH WIND       PRES   REMARKS
K.C. INTL      CLOUDY    64  55  72 E8G18     30.16F
K.C. DOWNTOWN  CLOUDY    64  53  67 E8        30.16S
LEES SUMMIT    CLOUDY    62  54  74 E3        30.17F
OLATHE - IXD   CLOUDY    64  54  69 E8        30.16F
OLATHE - OJC   CLOUDY    64  55  72 E8        30.15F
LAWRENCE       CLOUDY    67  54  63 SE12      30.15S

$$

MOZ001>008-011>017-020>025-030>033-038>040-044>046-053-054-012100-
...NORTHERN AND CENTRAL MISSOURI...

CITY           SKY/WX    TMP DP  RH WIND       PRES   REMARKS
ST. JOSEPH     PTSUNNY   69  55  60 SE10      30.14F
MOSBY          CLOUDY    63  54  72 E3        30.17S
WARRENSBURG    CLOUDY    61  54  77 E3        30.16F
WHITEMAN AFB   CLOUDY    62  55  78 E5        30.15F
CLINTON        CLOUDY    63  55  77 CALM      30.17S
SEDALIA        CLOUDY    62  54  74 E3        30.17F
WARSAW         CLOUDY    61  54  77 NE5       30.17S
CHILLICOTHE      N/A     67  55  65 E8        30.16F
MOBERLY        CLOUDY    63  52  67 E5        30.18F
KIRKSVILLE     CLOUDY    63  55  75 NE6       30.18S

$$

MOZ041-047>049-056>058-063>065-088>090-097-012100-
...EASTERN AND SOUTHERN MISSOURI...

CITY           SKY/WX    TMP DP  RH WIND       PRES   REMARKS
ST. LOUIS INTL CLOUDY    64  54  69 NE7       30.15F
SPIRIT OF STL  CLOUDY    63  56  78 N7        30.14F
COLUMBIA       CLOUDY    63  53  70 CALM      30.16S
JEFFERSON CITY CLOUDY    64  53  67 CALM      30.16F
ROLLA          CLOUDY    60  54  80 N6        30.14F
LEBANON        CLOUDY    61  54  77 CALM      30.16F
OSAGE BEACH    CLOUDY    61  54  77 CALM      30.16F
SPRINGFIELD    MOSUNNY   71  57  61 NE10      30.12F
BRANSON        CLOUDY    68  57  68 CALM      30.13F
NEVADA         CLOUDY    66  55  68 NE7       30.16F
JOPLIN         PTSUNNY   72  58  61 N6        30.12F
WEST PLAINS    CLOUDY    66  56  70 VRB3      30.14F
MALDEN         PTSUNNY   68  59  73 NW5       30.10F

$$

IAZ060-094-KSZ022-034>040-054-083-096-NEZ052-066-093-012100-
...KANSAS...SOUTHEAST NEBRASKA AND IOWA...

CITY           SKY/WX    TMP DP  RH WIND       PRES   REMARKS
TOPEKA         CLOUDY    71  56  58 E8        30.13F
MANHATTAN      MOSUNNY   74  57  55 SE12      30.10F
EMPORIA        PTSUNNY   70  56  61 SE10      30.12F
CHANUTE        CLOUDY    68  57  68 E9        30.13F
WICHITA        PTSUNNY   74  59  59 SE13G20   30.08F
OMAHA          MOSUNNY   73  53  49 S16       30.11F
LINCOLN        SUNNY     76  53  44 S14G22    30.10F
FALLS CITY     MOSUNNY   71  55  56 E8G16     30.12F
LAMONI         SUNNY     72  52  49 VRB3      30.15F
DES MOINES     MOSUNNY   71  42  35 SE8       30.16S

$$



USA.gov is the U.S. government's official web portal to all federal, state and local government web resources and services.